Regional Weather Roundup
Issued by NWS

Home | Current Version | Previous Version | Graphics & Text | Print | Product List | Glossary On
Versions: 1 2 3 4 5 6 7 8 9 10 11 12 13 14 15 16 17 18 19 20 21 22 23 24 25 26 27 28 29 30 31 32 33 34 35 36 37 38 39 40 41 42 43 44 45 46 47 48 49 50
000
ASUS43 KDTX 280310
RWRMI
MICHIGAN HOURLY REGIONAL WEATHER ROUNDUP
NATIONAL WEATHER SERVICE DETROIT/PONTIAC MI
1100 PM EDT WED MAY 27 2015

NOTE: "FAIR" INDICATES FEW OR NO CLOUDS BELOW 12,000 FEET WITH NO
SIGNIFICANT WEATHER AND/OR OBSTRUCTION TO VISIBILITY.

MIZ047>049-052>055-059>063-066>070-074>076-081>083-280400-
SOUTHEAST LOWER MICHIGAN

CITY           SKY/WX    TMP DP  RH WIND       PRES   REMARKS
ADRIAN         PTCLDY    65  58  78 NW3       30.09R
ALMA           CLEAR     59  56  91 CALM      30.09R
ANN ARBOR      MOCLDY    65  57  75 NW5       30.08R
BAD AXE        CLEAR     62  51  68 NW8       30.06R
CARO           CLEAR     64  55  73 NW6       30.07R
DETROIT CITY   PTCLDY    69  57  65 NW7       30.06R
DETROIT        CLOUDY    69  57  65 W7        30.07R
FLINT          CLEAR     64  56  75 W8        30.08R
GROSSE ILE     MOCLDY    68  61  77 W6        30.05R
HILLSDALE      PTCLDY    64  59  82 NW7       30.10R
HOWELL         CLEAR     64  57  78 W6        30.08R

CITY           SKY/WX    TMP DP  RH WIND       PRES   REMARKS
JACKSON        PTCLDY    64  56  75 NW6       30.10R
LAMBERTVILLE   CLOUDY    70  63  78 CALM      30.08R
LANSING        CLEAR     62  56  80 W8        30.10R
LAPEER         FAIR      64  55  72 NW6       30.07R
MASON          PTCLDY    60  55  82 W5        30.09R
MONROE         CLOUDY    68  63  83 W5        30.06R
MT. CLEMENS    PTCLDY    68  57  69 W9        30.04R
PONTIAC        MOCLDY    66  57  72 W9        30.07R
PORT HOPE        N/A     61  54  77 NW14      30.03R
PORT HURON     PTCLDY    64  57  77 CALM      30.05R
TRI CITIES     CLEAR     63  55  75 W7        30.07R
MIDLAND        FAIR      57  55  91 CALM      30.07R
TROY           PTCLDY    69  57  66 W6        30.08R
SAGINAW HB     CLEAR     63  55  77 W3        30.07R
$$
MIZ043>046-050>051-056>058-064>065-071>073-077>080-280400-
SOUTHWEST LOWER MICHIGAN

CITY           SKY/WX    TMP DP  RH WIND       PRES   REMARKS
BATTLE CREEK   CLEAR     61  55  81 NW3       30.11R
BENTON HARBOR  FOG       53  53 100 CALM      30.12R VSB 1/4
BIG RAPIDS     PTCLDY    58  55  88 E3        30.07R
COLDWATER      CLEAR     60  55  83 W3        30.11R
FREMONT        FAIR      57  55  94 S3        30.08R
HOLLAND        CLEAR     56  53  90 CALM      30.12R
GRAND RAPIDS   CLEAR     59  56  89 W6        30.10R
IONIA          FAIR      61  56  82 W7        30.09R
KALAMAZOO      CLEAR     60  54  80 NW3       30.12R
LUDINGTON      MOCLDY    58  54  84 SW7       30.07R
MARSHALL       CLEAR     62  55  79 NW3       30.10R
MOUNT PLEASANT CLEAR     60  55  84 CALM      30.07R
MUSKEGON       PTCLDY    52  50  93 SW3       30.10R
SOUTH HAVEN    FOG       54  53  96 CALM      30.12R VSB 1/4
$$
MIZ016>042-280400-
NORTHERN LOWER MICHIGAN

CITY           SKY/WX    TMP DP  RH WIND       PRES   REMARKS
ALPENA         PTCLDY    61  53  75 W6        30.05R
BEAVER ISLAND  CLOUDY    57  52  81 SE3       30.03R
BELLAIRE       PTCLDY    58  56  94 CALM      30.04R
CADILLAC       CLEAR     58  55  88 SW3       30.06R
CHARLEVOIX     MOCLDY    59  56  89 SE5       30.06R
FRANKFORT      CLOUDY    60  49  68 SW6       30.05R
GAYLORD        CLOUDY    59  58  96 CALM      30.07R
GRAYLING       CLEAR     55  54  94 CALM      30.08R
HARBOR SPRINGS PTCLDY    52  51  96 NE3       30.04S
HOUGHTON LAKE  MOCLDY    56  54  93 CALM      30.07R
MANISTEE       MOCLDY    61  50  67 SW3       30.06R
OSCODA         CLEAR     60  54  80 W7        30.04R
PELLSTON       MOCLDY    55  52  89 S3        30.04R
ROGERS CITY    PTCLDY    58  54  88 SW5       30.05S
TRAVERSE CITY  PTCLDY    61  55  81 SE3       30.02R
$$
MIZ007>008-015-280400-
EASTERN UPPER MICHIGAN

CITY           SKY/WX    TMP DP  RH WIND       PRES   REMARKS
KINROSS        CLEAR     55  55 100 S3        30.02S
MACKINAC ISLAN PTCLDY    56  55  95 S8        30.02S
NEWBERRY       MOCLDY    55  53  94 SW10      30.01R
S. S. MARIE    MOCLDY    51  49  92 CALM      30.02R
MUNISING         N/A     54  51  90 CALM      30.00R
$$
MIZ004>006-011>014-085-280400-
CENTRAL UPPER MICHIGAN

CITY           SKY/WX    TMP DP  RH WIND       PRES   REMARKS
MANISTIQUE     MOCLDY    47  45  94 S6        30.02R
ESCANABA       MOCLDY    57  55  94 E3        30.01R
MENOMINEE      MOCLDY    61  54  77 N3        30.03R
SAWYER-GWINN   MOCLDY    60  55  82 CALM      30.01R
$$
MIZ001>003-009>011-084-280400-
WESTERN UPPER MICHIGAN

CITY           SKY/WX    TMP DP  RH WIND       PRES   REMARKS
IRON MOUNTAIN  CLOUDY    64  54  69 N6        30.01R
HOUGHTON       PTCLDY    54  49  83 CALM      30.03R
COPPER HARBOR    N/A     52  42  69 SE7       30.05R
IRONWOOD       CLEAR     55  55 100 E3        29.99R
$$

ABBREVIATIONS USED IN REMARKS
   TC - TEMPERATURE IN CELSIUS
  WCI - WIND CHILL INDEX
   HX - HEAT INDEX
  VSB - VISIBILITY




USA.gov is the U.S. government's official web portal to all federal, state and local government web resources and services.